sat.trackr.live / text

‹ back to catalog

ONEWEB-0391

NORAD 50471 · 2021-132C

PAYLOAD ACTIVE UNKNOWN

§ Identity

Operator
Country
UK
Launch date
2021-12-27
Launch site
TYMSC
Launch vehicle
Mass (kg)
RCS (m²)

Purposes: comms

External: N2YO · Heavens-Above · Gunter

§ Orbital elements

Epoch: 2026-05-25T02:49:11.231904Z

Period
109.29 min
Inclination
87.9153°
Eccentricity
0.0002422
Mean motion
13.17650942 rev/d
Perigee alt
1,191.9 km
Apogee alt
1,195.5 km
Semi-major
7,571.8 km
B*
-6.0390e-5
RAAN
10.4664°
Arg perigee
101.0308°
Mean anomaly
259.1096°
Rev number
21,504

§ Raw data

ONEWEB-03911 50471U 21132C   26145.11749111 -.00000011  00000+0 -60390-4 0  99942 50471  87.9153  10.4664 0002422 101.0308 259.1096 13.17650942215048

JSON: /api/v1/satellites/50471 · /tle

For live sub-satellite position, see the globe view (requires WebGL).

§ Visibility from observer

Set your observer location to see the next 7 days of passes ≥ 10°. The values pass through the URL so the page stays shareable.

No JS? Fill the form by hand. The geolocation button needs JavaScript.